OE3GWU-13 Weather Reports


time (UTC)temp
C
wind
direction
speed
KPH
gust
KPH
rain 1hr
cm
rain 24hr
cm
rain mn
cm
humidity
%
barometer
mb
20260505102004 21 182 4.8 11.3 0.00 0.00 0.00 41 1012.2
20260505101004 21 13 3.2 8.0 0.00 0.00 0.00 39 1012.2
20260505100004 22 196 4.8 14.5 0.00 0.00 0.00 40 1012.4
20260505094004 21 193 8.0 11.3 0.00 0.00 0.00 40 1012.5
20260505093004 21 346 1.6 14.5 0.00 0.00 0.00 36 1012.9
20260505083004 21 350 1.6 4.8 0.00 0.00 0.00 39 1012.9
20260505082004 20 292 3.2 8.0 0.00 0.00 0.00 43 1012.9
20260505081004 20 358 0.0 1.6 0.00 0.00 0.00 40 1012.9
20260505080004 20 10 1.6 4.8 0.00 0.00 0.00 44 1012.9
20260505075004 20 299 1.6 8.0 0.00 0.00 0.00 44 1013.2
20260505071004 18 321 1.6 4.8 0.00 0.00 0.00 56 1013.2
20260505070005 18 226 4.8 8.0 0.00 0.00 0.00 61 1013.2
20260505063004 16 316 1.6 3.2 0.00 0.00 0.00 68 1013.2
20260505062004 16 355 0.0 3.2 0.00 0.00 0.00 68 1013.5
20260505060004 16 349 0.0 0.0 0.00 0.00 0.00 68 1013.9
20260505052004 12 353 0.0 0.0 0.00 0.00 0.00 76 1013.5
20260505051004 11 353 0.0 0.0 0.00 0.00 0.00 82 1013.7
20260505041004 7 352 0.0 1.6 0.00 0.00 0.00 90 1013.9
20260505040005 8 359 1.6 1.6 0.00 0.00 0.00 87 1013.9
20260505035004 7 348 1.6 1.6 0.00 0.00 0.00 89 1013.9
20260505032004 7 354 0.0 1.6 0.00 0.00 0.00 88 1013.9
20260505031004 7 13 0.0 0.0 0.00 0.00 0.00 88 1013.9
20260505030004 8 0 0.0 0.0 0.00 0.00 0.00 86 1014.2
20260505025004 9 350 0.0 0.0 0.00 0.00 0.00 84 1014.2
20260505015004 10 345 0.0 1.6 0.00 0.00 0.00 81 1014.2
20260505013004 11 1 1.6 1.6 0.00 0.00 0.00 76 1014.2
20260505012004 11 355 1.6 1.6 0.00 0.00 0.00 78 1014.2
20260505011004 11 350 0.0 1.6 0.00 0.00 0.00 77 1014.2
20260505004004 11 2 1.6 3.2 0.00 0.00 0.00 77 1014.6
20260505003004 12 348 0.0 4.8 0.00 0.00 0.00 76 1014.6
20260505002004 11 342 1.6 3.2 0.00 0.00 0.00 77 1014.9
20260505000004 11 353 1.6 3.2 0.00 0.00 0.00 77 1015.0
20260504235005 11 351 1.6 3.2 0.00 0.00 0.00 75 1015.2
20260504234004 11 347 1.6 3.2 0.00 0.00 0.00 73 1014.9
20260504232004 12 347 0.0 1.6 0.00 0.00 0.00 69 1015.2
20260504225004 12 358 0.0 1.6 0.00 0.00 0.00 66 1015.9
20260504224004 12 352 0.0 1.6 0.00 0.00 0.00 66 1015.9
20260504223004 12 347 0.0 3.2 0.00 0.00 0.00 64 1015.9
20260504222004 11 349 1.6 3.2 0.00 0.00 0.00 63 1015.9
20260504221004 12 6 1.6 1.6 0.00 0.00 0.00 65 1015.9
20260504213004 12 345 0.0 1.6 0.00 0.00 0.00 62 1015.9
20260504212004 13 12 1.6 3.2 0.00 0.00 0.00 58 1015.9
20260504211004 12 349 3.2 3.2 0.00 0.00 0.00 59 1016.3
20260504210004 12 348 0.0 1.6 0.00 0.00 0.00 61 1016.3
20260504203004 13 350 1.6 1.6 0.00 0.00 0.00 56 1015.6
20260504201006 14 342 0.0 1.6 0.00 0.00 0.00 54 1015.8
20260504194004 15 320 0.0 0.0 0.00 0.00 0.00 50 1015.9
20260504190004 16 345 3.2 4.8 0.00 0.00 0.00 49 1015.9
20260504185004 16 344 3.2 8.0 0.00 0.00 0.00 48 1015.9
20260504182004 17 341 1.6 3.2 0.00 0.00 0.00 48 1016.3
20260504181004 17 183 0.0 4.8 0.00 0.00 0.00 49 1015.9
20260504180004 17 346 0.0 3.2 0.00 0.00 0.00 51 1015.9
20260504175004 17 242 1.6 3.2 0.00 0.00 0.00 51 1015.9
20260504174004 18 37 0.0 4.8 0.00 0.00 0.00 51 1016.3
20260504173004 18 339 0.0 9.7 0.00 0.00 0.00 51 1015.9
20260504171004 18 20 0.0 9.7 0.00 0.00 0.00 51 1016.3